Weather History for Saranac Lake, NY

Change the Weather History Date:

Monday, June 4, 2012

  Actual Average Record
Temperature  
Mean Temperature 46 °F 57 °F  
Max Temperature 52 °F 69 °F 88 °F (1949)
Min Temperature 39 °F 44 °F 26 °F (2002)
Degree Days  
Heating Degree Days 18    
Cooling Degree Days 0 1  
Month to date cooling degree days 0 3  
Year to date cooling degree days 16 6  
Since 1 June cooling degree days 0 3  
Moisture  
Dew Point 46 °F    
Average Humidity 93    
Maximum Humidity 100    
Minimum Humidity 86    
Precipitation  
Precipitation 0.22 in 0.13 in 0.35 in (1950)
Month to date precipitation 0.71 0.51  
Year to date precipitation 12.70 12.86  
Sea Level Pressure  
Sea Level Pressure 29.77 in    
Wind  
Wind Speed 9 mph (NE)    
Max Wind Speed 17 mph    
Max Gust Speed 26 mph    
Visibility 6 miles    
Events Rain    
T = Trace of Precipitation, MM = Missing Value Source: NWS Daily Summary

Daily Weather History Graph

Daily Weather History Graph

Search for Another Location

Airport:

Trip Planner

Search our weather history database for the weather conditions in past years. The results will help you decide how hot, cold, wet, or windy it might be!

Date:

Astronomy

Jun. 04, 2012 Rise Set
Actual Time 5:13 AM EDT 8:36 PM EDT
Civil Twilight 4:37 AM EDT 9:12 PM EDT
Nautical Twilight 3:50 AM EDT 10:00 PM EDT
Astronomical Twilight 2:51 AM EDT 10:59 PM EDT
Moon 9:03 PM EDT (6/4) 5:18 AM EDT (6/4)
Length of Visible Light 16h 35m
Length of Day
15h 22m
Full, 100% of the Moon is Illuminated
Jun 4
Full
Jun 11
Last Quarter
Jun 19
New
Jun 26
First Quarter
Jul 3
Full

Hourly Weather History & Observations

Time (EDT) Temp. Windchill Dew Point Humidity Pressure Visibility Wind Dir Wind Speed Gust Speed Precip Events Conditions
12:42 AM 51.8 °F - 51.8 °F 100% 29.66 in 10.0 mi NE 3.5 mph - N/A   Overcast
12:51 AM 52.0 °F - 50.0 °F 93% 29.66 in 10.0 mi NE 4.6 mph - N/A   Overcast
1:51 AM 51.1 °F - 50.0 °F 96% 29.67 in 10.0 mi ENE 4.6 mph - N/A   Overcast
2:51 AM 50.0 °F - 48.2 °F 94% 29.66 in 10.0 mi NE 5.8 mph - N/A   Overcast
3:51 AM 48.9 °F - 46.9 °F 93% 29.66 in 10.0 mi NE 9.2 mph - N/A   Overcast
4:51 AM 48.0 °F - 46.0 °F 93% 29.68 in 4.0 mi ENE 9.2 mph - N/A   Overcast
5:51 AM 46.9 °F - 46.0 °F 97% 29.69 in 5.0 mi NE 10.4 mph - 0.03 in Rain Light Rain
6:05 AM 46.4 °F 41.5 °F 46.4 °F 100% 29.68 in 6.0 mi NE 10.4 mph - 0.01 in Rain Light Rain
6:51 AM 46.9 °F - 46.0 °F 97% 29.70 in 4.0 mi NE 9.2 mph - 0.04 in Rain Light Rain
7:31 AM 48.2 °F - 46.4 °F 93% 29.70 in 5.0 mi ENE 9.2 mph - 0.02 in Rain Light Rain
7:38 AM 46.4 °F 41.5 °F 46.4 °F 100% 29.70 in 4.0 mi NE 10.4 mph - 0.02 in Rain Light Rain
7:51 AM 48.0 °F - 46.0 °F 93% 29.72 in 4.0 mi NE 11.5 mph - 0.03 in Rain Light Rain
8:14 AM 48.2 °F - 46.4 °F 93% 29.71 in 5.0 mi ENE 11.5 mph - 0.01 in Rain Light Rain
8:36 AM 48.2 °F - 46.4 °F 93% 29.72 in 5.0 mi ENE 9.2 mph 18.4 mph 0.02 in Rain Light Rain
8:45 AM 48.2 °F - 46.4 °F 93% 29.72 in 5.0 mi NE 10.4 mph - 0.02 in Rain Light Rain
8:51 AM 48.0 °F - 46.0 °F 93% 29.73 in 5.0 mi ENE 9.2 mph - 0.03 in Rain Light Rain
9:16 AM 48.2 °F - 44.6 °F 87% 29.73 in 5.0 mi NE 10.4 mph - 0.01 in Rain Light Rain
9:51 AM 48.0 °F - 45.0 °F 89% 29.75 in 3.0 mi NE 11.5 mph - 0.01 in Rain Light Rain
9:55 AM 48.2 °F - 44.6 °F 87% 29.73 in 2.5 mi NE 9.2 mph - 0.01 in Rain Light Rain
10:02 AM 48.2 °F - 46.4 °F 93% 29.74 in 2.0 mi NE 9.2 mph - 0.01 in Rain Light Rain
10:13 AM 48.2 °F - 46.4 °F 93% 29.74 in 5.0 mi NE 13.8 mph 18.4 mph 0.01 in Rain Light Rain
10:51 AM 48.9 °F - 46.0 °F 90% 29.76 in 6.0 mi NE 13.8 mph - 0.01 in   Overcast
11:22 AM 48.2 °F - 46.4 °F 93% 29.76 in 5.0 mi ENE 9.2 mph - N/A   Overcast
11:31 AM 48.2 °F - 46.4 °F 93% 29.76 in 2.5 mi NE 12.7 mph - N/A   Overcast
11:33 AM 48.2 °F - 46.4 °F 93% 29.76 in 3.0 mi NE 11.5 mph - 0.00 in Rain Light Rain
11:51 AM 50.0 °F - 46.0 °F 86% 29.77 in 10.0 mi ENE 10.4 mph - 0.00 in   Overcast
12:05 PM 51.8 °F - 46.4 °F 82% 29.76 in 10.0 mi ENE 13.8 mph 18.4 mph N/A   Mostly Cloudy
12:19 PM 50.0 °F - 44.6 °F 82% 29.76 in 7.0 mi NE 15.0 mph 21.9 mph N/A   Overcast
12:27 PM 50.0 °F - 46.4 °F 87% 29.77 in 5.0 mi NE 12.7 mph 21.9 mph 0.01 in Rain Light Rain
12:36 PM 48.2 °F - 46.4 °F 93% 29.77 in 1.8 mi NE 12.7 mph - 0.01 in Rain Light Rain
12:46 PM 48.2 °F - 46.4 °F 93% 29.77 in 3.0 mi NE 10.4 mph - 0.02 in Rain Light Rain
12:51 PM 50.0 °F - 46.0 °F 86% 29.78 in 10.0 mi NE 10.4 mph - 0.02 in   Overcast
1:49 PM 50.0 °F - 46.4 °F 87% 29.78 in 2.5 mi ENE 12.7 mph 21.9 mph 0.00 in   Overcast
1:51 PM 50.0 °F - 46.0 °F 86% 29.80 in 2.5 mi NE 11.5 mph 21.9 mph 0.00 in Rain Light Rain
2:02 PM 50.0 °F - 46.4 °F 87% 29.79 in 5.0 mi ENE 10.4 mph - 0.00 in   Overcast
2:51 PM 50.0 °F - 46.0 °F 86% 29.81 in 10.0 mi ENE 12.7 mph 18.4 mph 0.00 in   Overcast
3:02 PM 50.0 °F - 46.4 °F 87% 29.79 in 5.0 mi NE 12.7 mph - 0.00 in Rain Light Rain
3:26 PM 50.0 °F - 46.4 °F 87% 29.80 in 4.0 mi NE 11.5 mph - 0.01 in Rain Light Rain
3:33 PM 50.0 °F - 46.4 °F 87% 29.80 in 10.0 mi ENE 10.4 mph - 0.01 in   Overcast
3:40 PM 51.8 °F - 46.4 °F 82% 29.80 in 10.0 mi NE 11.5 mph 20.7 mph 0.01 in   Overcast
3:51 PM 50.0 °F - 46.0 °F 86% 29.82 in 4.0 mi NE 17.3 mph 26.5 mph 0.02 in Rain Rain
3:55 PM 48.2 °F - 46.4 °F 93% 29.81 in 2.0 mi NE 15.0 mph 26.5 mph 0.02 in Rain Heavy Rain
4:07 PM 48.2 °F - 46.4 °F 93% 29.81 in 10.0 mi NE 13.8 mph - 0.02 in Rain Light Rain
4:43 PM 50.0 °F - 46.4 °F 87% 29.81 in 10.0 mi NE 13.8 mph - 0.02 in   Overcast
4:51 PM 50.0 °F - 46.0 °F 86% 29.83 in 4.0 mi NE 13.8 mph - 0.02 in   Overcast
5:51 PM 48.9 °F - 46.0 °F 90% 29.85 in 10.0 mi ENE 13.8 mph 17.3 mph N/A   Overcast
6:43 PM 48.2 °F - 44.6 °F 87% 29.84 in 10.0 mi NE 10.4 mph - N/A   Overcast
6:51 PM 48.9 °F - 45.0 °F 86% 29.86 in 10.0 mi NE 6.9 mph - N/A   Overcast
7:51 PM 48.9 °F - 45.0 °F 86% 29.88 in 10.0 mi NNE 6.9 mph - N/A   Overcast
7:58 PM 48.2 °F - 44.6 °F 87% 29.86 in 10.0 mi NE 6.9 mph - N/A   Overcast
8:22 PM 48.2 °F - 44.6 °F 87% 29.86 in 9.0 mi NNE 6.9 mph - 0.01 in   Overcast
8:51 PM 46.9 °F - 45.0 °F 93% 29.88 in 10.0 mi NNE 5.8 mph - 0.01 in   Partly Cloudy
9:51 PM 43.0 °F 41.3 °F 42.1 °F 97% 29.90 in 10.0 mi NE 3.5 mph - N/A   Clear
10:51 PM 42.1 °F - 41.0 °F 96% 29.90 in 7.0 mi Calm Calm - N/A   Mostly Cloudy
11:51 PM 43.0 °F - 42.1 °F 97% 29.89 in 10.0 mi Calm Calm - N/A   Mostly Cloudy